Theta_e
324 325 318 313 299 294 290 295 295 297 296 298 302 301 300 301 301 296 312 319 322 326 329 332 338 338 339 340 341 343 343 344 345 344 342 341 341 340 341 339 338 339 341 342 344 343 341 341 343
319 320 314 306 294 289 291 294 295 297 299 300 302 301 300 298 305 307 307 317 320 323 324 327 335 336 337 336 337 338 338 338 338 339 338 335 334 335 335 335 334 335 336 338 339 338 336 336 338
317 317 306 300 293 290 290 294 296 298 299 298 298 299 299 301 304 306 308 316 317 319 321 326 332 333 334 333 333 335 334 334 335 333 332 332 330 329 328 327 326 326 328 333 334 332 331 331 332
311 307 302 292 291 293 292 294 298 298 297 298 299 295 299 304 307 306 310 315 314 316 319 327 329 329 329 328 329 330 329 332 327 325 325 325 323 323 321 321 320 321 321 324 324 322 322 321 323
307 303 295 291 292 294 294 299 298 297 297 297 298 295 297 302 304 307 310 313 311 312 315 320 327 326 326 325 325 324 324 325 322 321 320 319 318 318 318 318 318 318 318 319 319 319 318 318 318
300 299 291 289 293 295 295 299 299 297 297 297 296 294 297 302 302 302 305 309 310 310 312 315 322 324 323 322 322 321 320 319 318 318 316 316 315 315 315 316 316 316 316 316 317 316 316 316 316
301 297 293 292 294 295 296 297 296 297 297 297 299 296 295 298 300 300 300 303 307 309 308 308 310 315 319 320 319 318 317 316 315 314 313 312 311 311 310 312 313 314 314 314 315 314 314 314 315
300 296 291 290 293 294 297 297 298 297 298 299 301 296 295 298 301 299 297 297 301 303 305 304 304 305 304 307 316 316 314 312 310 310 309 309 309 309 307 307 310 311 312 312 312 312 312 310 310
303 292 290 293 294 294 296 295 297 298 296 297 301 298 299 301 300 297 294 294 296 299 300 301 301 301 301 302 308 312 311 309 308 307 308 306 298 299 301 306 308 308 308 308 309 308 307 306 305
299 293 295 298 295 294 297 296 297 295 295 295 297 296 300 299 298 296 293 294 293 295 296 299 298 299 299 302 301 299 301 299 300 299 298 299 297 299 301 304 304 304 303 304 305 305 303 300 297
298 294 298 298 299 298 297 295 298 296 294 296 297 297 298 296 296 296 296 295 295 295 295 297 297 297 297 297 297 296 296 296 297 296 297 297 296 295 295 294 294 294 297 293 294 294 294 294 294
296 300 301 302 300 298 296 298 297 296 299 301 300 299 298 296 296 296 295 295 294 294 295 295 296 296 295 296 297 296 296 295 295 295 296 295 293 292 292 292 291 291 291 290 290 291 292 292 293
297 298 301 301 300 299 299 297 296 296 299 300 301 300 297 297 297 297 297 297 296 295 295 295 295 295 295 296 296 295 295 295 294 293 294 294 292 290 291 290 290 289 289 289 289 290 290 291 292
297 299 298 299 299 299 297 295 297 297 299 299 300 299 297 298 297 296 295 296 297 297 296 295 295 295 296 294 294 294 294 294 294 291 291 292 291 289 290 289 289 288 288 288 288 288 288 289 290
298 295 295 297 297 297 298 294 294 301 297 298 298 298 298 297 297 297 298 297 298 298 297 294 295 295 296 294 294 294 293 293 292 291 291 291 290 289 288 288 288 287 288 288 288 288 288 288 289
292 291 288 294 296 297 296 290 296 299 296 296 298 296 296 297 299 300 300 299 299 297 295 295 296 295 294 293 293 293 292 291 291 290 290 290 290 289 287 287 287 287 287 286 286 286 286 286 286
289 285 287 292 297 295 293 291 296 297 295 296 294 295 297 299 297 300 299 299 298 298 295 294 294 293 294 292 292 291 290 290 290 289 289 289 289 288 287 286 286 287 286 286 286 286 285 284 285
285 286 289 289 292 292 290 292 296 296 294 294 294 294 294 297 300 299 299 300 299 298 295 294 294 293 293 292 290 289 289 288 288 287 288 288 288 288 286 285 286 286 285 285 285 284 285 284 285
289 287 286 292 295 293 293 293 295 297 295 294 295 297 299 299 299 297 299 299 298 294 293 292 292 292 293 291 289 288 288 286 286 286 288 287 287 287 286 285 285 285 284 284 285 284 284 284 284
291 289 288 292 293 291 291 291 295 294 296 297 297 297 299 299 296 296 295 295 295 293 293 292 292 292 292 292 291 288 288 285 286 287 287 287 287 286 286 285 284 284 283 283 283 283 282 283 283
291 288 289 288 291 290 288 287 290 294 295 297 299 299 299 299 295 293 293 294 294 292 291 292 292 292 292 291 289 286 286 285 284 285 285 286 286 286 285 284 283 283 283 282 282 282 282 281 281
288 292 291 289 285 284 286 282 287 291 292 293 296 297 297 293 294 293 293 291 293 292 292 292 291 291 291 289 289 286 287 286 286 287 286 285 286 285 284 284 283 282 282 282 281 283 281 281 279
290 290 289 287 285 283 285 282 285 289 289 292 295 296 296 294 293 293 293 295 293 292 291 291 290 290 290 290 289 287 286 286 283 283 284 284 283 284 283 283 282 281 281 281 281 281 280 280 280
291 287 286 284 282 279 283 283 284 285 289 291 294 295 297 296 294 294 294 293 291 290 290 290 289 290 290 289 289 287 286 283 282 283 284 283 283 282 282 282 281 280 280 280 280 280 280 279 279
287 284 278 276 275 279 285 282 288 289 291 293 294 295 296 293 293 291 291 291 290 288 289 289 289 288 289 289 287 287 286 284 283 283 284 282 282 280 280 280 280 279 279 280 279 279 278 278 278
285 286 278 272 277 281 281 278 285 292 294 293 294 296 292 292 292 291 291 291 290 290 288 289 288 288 288 288 287 287 285 285 285 284 284 283 283 281 280 279 279 278 278 278 278 277 277 278 278
285 283 288 280 270 274 283 285 288 291 291 292 292 289 291 292 291 291 290 290 289 289 289 289 289 289 288 287 287 286 285 285 284 283 283 282 281 280 279 279 277 277 277 277 277 276 276 277 278
286 287 281 280 272 270 281 279 285 289 292 294 290 290 290 291 291 291 290 290 289 290 290 289 289 289 288 287 287 286 285 285 284 282 281 280 279 279 278 277 276 276 276 276 276 276 276 276 276
283 283 284 284 280 279 278 282 287 287 289 290 289 290 290 291 291 292 292 292 291 290 289 288 288 287 287 286 286 285 284 283 282 282 280 279 278 277 277 276 276 276 275 275 274 274 274 274 274
287 286 286 282 279 279 282 283 295 290 290 290 290 291 289 292 293 292 291 291 289 289 288 288 288 287 287 286 284 284 282 281 281 280 278 277 277 276 276 276 275 275 274 274 274 273 273 273 272
Wind_Speed
4 6 2 5 5 6 4 5 2 2 3 2 2 4 6 2 2 4 4 7 10 9 6 6 10 10 9 9 9 9 10 10 12 13 12 13 13 11 12 12 11 10 10 12 14 14 13 13 13
3 3 4 2 4 2 6 3 4 2 4 3 6 3 6 2 4 7 7 8 9 10 7 5 10 11 11 10 9 8 9 7 7 8 11 10 8 9 10 11 12 12 11 10 11 11 11 11 10
3 1 4 3 2 4 4 5 7 4 3 3 3 2 2 5 2 11 6 11 11 9 7 7 11 14 13 13 12 12 12 9 10 10 11 11 11 11 12 12 11 11 11 11 10 10 11 11 12
2 5 5 3 8 8 4 4 6 7 2 2 5 2 2 2 9 10 10 10 9 9 7 10 13 14 14 13 13 13 13 13 12 12 12 12 11 11 11 11 11 12 12 11 12 11 11 12 11
4 3 1 2 7 5 2 8 7 5 5 4 3 3 2 2 7 14 11 10 11 8 7 7 14 15 14 13 13 13 13 13 13 12 12 11 11 11 11 12 12 13 13 12 12 12 12 12 12
4 3 2 3 4 3 3 7 9 6 4 4 3 2 4 6 10 9 9 10 10 10 7 6 10 12 14 14 14 14 13 13 12 12 12 12 12 11 11 11 12 12 11 11 12 13 14 14 14
4 3 5 5 7 5 2 3 5 7 7 7 6 6 0 5 7 9 9 9 9 9 8 6 6 8 11 13 14 14 14 13 13 13 13 12 11 11 12 11 12 13 12 13 14 14 15 16 16
4 4 4 4 4 5 5 3 2 5 5 1 5 7 6 8 11 9 7 8 8 8 8 8 7 7 6 6 12 14 14 13 13 12 10 9 11 11 11 10 12 13 12 15 15 16 17 16 17
3 3 4 5 3 1 2 3 2 3 2 3 6 4 3 10 12 8 6 6 6 7 9 9 8 7 7 6 7 11 14 13 12 10 8 9 5 6 6 9 10 12 12 13 14 15 16 16 15
4 3 7 4 3 3 3 5 7 2 3 5 4 2 6 11 14 14 10 13 7 10 9 11 9 9 9 7 7 7 6 5 5 5 6 5 5 5 6 7 11 11 11 13 14 14 13 10 5
5 7 5 4 2 2 3 2 4 7 7 9 12 9 11 10 14 15 15 14 17 10 7 11 10 9 10 8 5 3 3 4 4 6 5 5 4 4 4 3 3 4 7 4 5 5 4 5 4
4 8 7 7 3 1 3 4 5 8 15 7 12 8 13 12 18 18 17 16 12 13 14 11 10 10 8 6 7 6 5 4 4 5 6 5 3 4 4 3 3 3 3 4 4 3 4 5 6
5 5 7 7 8 6 2 9 8 12 10 11 10 7 17 16 18 14 14 12 11 14 14 14 12 11 9 8 6 5 5 5 5 5 5 5 5 5 4 3 3 3 3 4 5 5 5 6 7
3 5 7 7 11 6 7 6 5 10 8 14 12 13 12 19 22 12 11 15 16 15 15 14 14 12 10 7 7 6 5 6 5 5 5 6 5 5 4 4 4 3 3 3 4 4 4 4 5
3 8 9 13 9 8 6 10 16 25 5 9 12 13 12 17 11 22 21 19 18 13 14 17 15 12 12 10 7 6 5 6 5 5 6 7 6 6 6 4 4 2 3 4 4 4 4 4 5
2 2 5 6 8 4 10 17 11 12 9 16 18 12 10 13 21 20 16 17 16 13 17 17 15 15 12 9 6 6 5 5 5 5 5 7 6 6 5 4 4 3 3 3 3 3 4 4 4
4 6 8 12 8 7 6 13 11 9 9 15 11 11 14 16 12 16 15 18 19 18 18 19 17 16 13 8 6 6 7 5 5 5 5 7 7 7 5 4 4 4 3 2 2 2 3 3 4
8 7 7 10 4 4 6 19 16 11 6 11 10 10 12 16 23 13 16 18 18 18 18 18 15 15 15 9 6 4 4 4 5 5 5 7 5 6 6 4 5 4 3 2 2 3 1 1 4
5 6 9 20 10 10 17 18 21 20 10 13 16 18 20 19 15 10 15 17 15 13 17 19 18 16 13 9 8 6 8 5 4 5 8 7 6 6 6 4 5 5 4 4 3 1 2 2 4
12 15 16 16 12 11 14 21 18 11 15 16 17 19 22 17 9 8 10 12 18 19 19 18 18 17 14 11 9 5 6 2 3 4 6 7 7 7 6 6 5 5 4 5 4 3 2 2 4
20 15 19 19 10 7 8 11 13 12 10 14 17 19 21 18 12 7 9 15 15 18 20 20 20 20 16 14 8 4 5 3 3 5 6 6 8 8 7 7 5 5 4 5 4 4 4 1 3
23 10 15 10 3 13 5 16 8 7 13 10 16 18 15 12 9 8 10 11 17 17 17 19 18 19 14 15 14 11 12 11 8 9 7 6 8 7 7 7 6 6 4 5 4 4 3 3 1
18 3 4 1 4 5 6 7 3 8 8 11 16 18 18 12 10 11 16 18 14 15 17 17 17 17 15 18 17 12 12 7 3 4 9 7 6 8 8 8 7 6 4 5 6 4 3 3 3
2 1 1 2 3 14 9 10 7 7 10 7 11 12 15 12 9 10 8 9 9 10 13 15 18 18 18 18 17 19 16 11 8 8 9 9 8 7 7 7 6 6 5 6 5 4 4 3 2
3 5 5 5 1 16 13 12 19 5 7 12 13 13 15 7 9 10 12 12 12 15 16 15 17 17 16 19 18 20 17 16 14 14 12 12 9 6 9 8 7 5 5 6 6 4 3 2 2
9 10 8 8 10 20 4 10 8 11 12 11 13 15 5 8 8 10 13 13 13 15 15 16 16 17 18 19 18 16 16 12 10 13 10 11 11 9 9 8 8 8 7 6 6 3 3 3 3
6 7 9 2 2 3 9 13 7 7 10 11 14 3 8 9 9 10 8 11 12 14 17 19 18 18 17 18 15 16 14 16 14 13 11 9 9 8 10 10 9 7 7 7 6 4 4 3 3
5 2 2 1 3 8 18 6 14 16 22 19 7 9 8 6 8 8 9 12 12 14 15 15 16 19 16 16 16 15 16 16 12 11 13 11 9 9 11 10 9 7 7 7 6 4 4 4 4
1 4 5 2 5 14 15 17 6 2 6 7 7 6 8 9 10 10 10 12 13 10 13 14 15 16 16 15 16 16 15 14 12 13 11 12 11 11 11 11 10 9 7 7 6 5 4 4 3
5 7 9 10 11 5 8 16 19 7 5 7 5 4 1 5 8 9 10 10 10 13 13 17 16 17 19 15 13 15 11 12 13 12 11 11 12 10 12 11 11 10 9 8 6 6 4 4 4
Wind_Direction
302 281 305 38 44 68 268 261 86 72 59 40 46 78 126 69 153 200 215 120 121 119 114 109 118 116 113 88 77 97 105 88 91 88 70 58 58 53 56 52 52 46 36 30 36 39 30 25 25
302 300 36 70 94 65 270 206 123 141 162 108 73 9 50 123 122 139 125 152 126 126 122 113 118 122 121 112 93 91 90 109 94 77 75 65 68 67 62 60 56 50 47 48 43 35 31 24 16
290 298 80 103 166 194 220 195 149 143 118 98 88 79 158 177 123 159 191 145 123 125 126 132 132 127 122 116 117 111 114 116 105 95 89 85 79 72 63 57 52 50 45 44 44 34 28 25 20
41 12 16 91 248 263 195 156 145 132 40 61 142 158 56 226 164 171 152 140 122 128 131 138 137 131 129 128 122 118 114 109 104 97 92 86 80 75 65 56 48 45 41 41 36 27 22 20 14
27 64 48 256 268 253 228 147 148 140 163 205 146 234 243 9 114 139 146 142 133 134 131 140 141 138 134 130 127 122 119 115 111 107 99 95 87 78 67 63 56 48 44 40 34 28 23 18 10
16 99 32 255 257 258 198 154 136 153 175 177 163 135 223 141 135 166 146 149 138 140 139 133 137 139 141 143 139 132 125 121 117 112 108 102 93 85 76 65 59 50 47 42 35 29 24 20 18
125 92 227 247 257 302 207 145 156 179 164 217 169 163 342 188 176 162 156 147 136 139 136 134 124 134 147 149 142 136 131 128 128 126 118 109 98 85 69 60 57 46 46 39 36 33 31 28 24
112 97 284 255 250 250 170 120 125 159 244 46 167 221 228 204 170 153 152 149 150 153 153 157 153 143 144 147 141 139 136 135 132 129 124 110 92 92 72 59 54 45 44 37 32 30 30 22 20
61 50 260 262 298 252 196 152 317 143 159 206 208 186 226 133 139 143 153 164 164 174 170 164 164 160 155 142 141 140 144 140 139 137 145 116 111 108 94 79 66 59 48 41 33 30 22 17 13
118 151 235 222 287 284 202 181 182 179 239 238 225 19 122 141 161 173 182 190 188 188 186 172 173 165 161 155 152 156 159 157 157 148 132 130 116 112 95 69 67 64 53 42 33 29 22 17 358
200 211 220 278 284 32 282 255 201 183 236 210 213 195 175 167 181 187 200 199 199 186 179 184 177 169 167 158 164 169 163 161 152 146 144 132 109 90 82 74 55 50 53 48 37 20 12 8 359
225 244 247 275 236 184 250 294 265 205 237 208 224 192 178 185 191 197 201 202 187 186 190 178 177 174 176 158 167 172 161 160 157 156 141 128 112 107 110 112 103 89 55 42 29 20 360 8 0
231 258 264 268 272 230 217 249 247 261 264 254 255 185 187 202 209 213 210 205 196 196 188 186 178 177 175 164 166 164 172 160 165 150 137 134 129 129 125 114 90 69 46 39 23 13 6 3 356
247 256 264 259 254 232 199 259 155 257 230 247 239 246 205 203 208 204 201 205 199 196 191 180 183 176 165 167 168 170 166 162 154 145 142 134 138 134 125 112 86 67 48 38 29 15 16 7 346
290 316 309 260 244 222 123 282 224 248 253 258 249 239 224 217 203 209 208 205 197 198 180 182 176 169 170 172 170 169 169 154 144 148 146 139 138 137 135 124 103 87 61 50 30 13 12 3 351
246 206 288 272 129 211 126 260 247 248 193 238 242 244 240 232 217 221 208 201 190 177 177 177 176 172 168 171 164 163 161 152 150 147 147 153 145 140 133 130 128 123 90 75 46 27 1 5 345
268 239 215 296 200 138 169 257 269 259 202 246 242 238 239 251 237 225 207 196 186 180 172 173 171 168 166 160 156 156 159 158 160 152 159 161 149 147 141 139 132 122 104 79 58 36 44 348 329
212 226 243 240 197 158 194 249 261 268 266 250 267 248 241 242 246 218 206 198 185 178 172 167 164 163 162 155 143 138 148 159 160 165 169 158 156 156 149 144 145 143 134 115 74 58 339 286 292
249 251 235 268 259 203 239 237 255 256 258 248 255 261 259 252 255 222 205 194 171 161 160 166 163 169 160 163 159 160 180 176 173 176 160 161 161 164 159 155 156 159 149 140 113 120 22 359 334
247 257 262 274 270 194 249 253 252 241 244 242 238 251 257 255 258 239 187 170 172 167 168 167 169 169 172 171 172 165 162 164 158 153 165 171 168 171 167 163 170 163 149 124 112 97 41 19 35
249 248 258 255 295 232 282 265 247 245 253 252 253 247 258 256 233 215 181 180 166 169 170 170 172 174 174 169 151 100 89 80 149 190 184 188 172 173 166 170 164 177 170 145 137 122 109 76 7
262 218 258 266 255 270 132 290 218 231 239 236 246 254 251 240 220 198 182 176 177 177 170 171 172 175 174 165 172 174 187 185 202 190 180 170 172 172 166 171 174 186 180 128 128 128 126 124 218
260 181 236 246 239 317 176 285 190 195 243 247 245 249 257 242 203 191 190 189 181 167 172 171 172 176 174 179 184 183 192 191 136 149 165 167 171 171 177 177 177 178 171 137 140 133 149 163 162
110 202 197 41 83 262 186 210 158 193 211 235 246 247 249 255 199 197 181 149 168 164 168 172 175 183 181 182 184 190 189 176 165 170 180 182 180 180 181 178 169 171 171 146 149 147 140 149 179
169 76 304 321 20 259 184 223 253 275 216 213 230 239 237 179 179 167 161 172 172 177 178 177 181 188 185 186 190 192 191 186 187 179 183 176 177 185 190 170 170 167 167 145 139 145 157 188 187
183 174 172 223 256 277 154 252 254 224 231 232 222 228 223 176 186 181 181 180 182 186 182 185 187 189 192 193 195 194 190 192 195 189 179 186 185 182 167 167 162 161 161 147 139 138 159 189 208
169 183 217 344 61 7 252 275 296 257 282 271 248 165 223 203 188 191 182 187 186 187 195 190 190 198 194 195 192 196 193 196 195 189 182 183 172 163 162 159 154 155 152 146 144 161 171 203 208
168 149 110 283 205 241 273 272 270 286 278 271 239 210 206 204 195 200 204 198 195 195 194 198 202 203 198 196 195 195 195 198 192 180 183 173 165 150 153 153 150 155 160 146 147 164 170 198 199
150 248 235 211 178 242 258 270 153 103 315 290 260 225 196 212 216 212 212 210 208 191 190 197 198 199 201 199 198 194 196 189 178 185 185 169 155 157 157 157 158 162 161 147 154 169 176 212 223
168 212 213 236 259 236 271 265 277 294 335 288 111 271 291 216 237 232 217 213 194 197 191 198 199 202 206 198 195 198 182 176 179 182 170 156 160 161 162 162 162 166 164 158 156 162 185 198 224